Weather in Zaozerye

Russia / Republic of Karelia     61°51′47″N   34°22′43″E
temp.,
°C
wind,
m/s
gust,
m/s
humid.,
%
clouds,
%
prec.,
mm/h
press.,
hPa
HPBL,
m
7 march, sun
sun700:00−6s81691100 0.3 989919
03:00−4s71589100 1.2 986656
06:00−6wnw3489100 0.1 984111
09:00−8nw3691100 0.1 984198
12:00−5nne4795100 0.4 985442
15:00−6ne71195100 2.6 986775
18:00−8ne81394100 2.2 989837
21:00−9ne91494100 4.2 993856
8 march, mon
mon800:00−10nne81488100 0.9 996687
03:00−13nne81391100 1.0 1001590
06:00−17n6129498 0.1 1004410
09:00−19n6119496 0.1 1008384
12:00−17n589398 0.0 1010418
15:00−16n599196 0.0 1012481
18:00−18n499373 0.0 1014264
21:00−22n479761 0.0 1016140
9 march, tue
tue900:00−26nnw339836 0.0 101750
03:00−28nnw339933 0.0 101948
06:00−30nnw339938 0.0 102040
09:00−28nnw239739 0.0 102282
12:00−23nne228929 0.0 1022234
15:00−19nne128514 0.0 1023225
18:00−20wnw12900 0.0 102220
21:00−21wnw228930 0.0 102423
10 march, wed
wed1000:00−22nw239013 0.0 102520
03:00−23wnw22917 0.0 102620
06:00−23w23890 0.0 102623
09:00−20wnw24836 0.0 102695
12:00−14wnw248084 0.0 1026240
15:00−12w358292 0.0 1025221
18:00−14w368794 0.0 1025118
21:00−17w348863 0.0 102547
11 march, thu
thu1100:00−19w33860 0.0 102533
03:00−20w23830 0.0 102527
06:00−21w12800 0.0 102420
09:00−18s11760 0.0 102333
12:00−13sse35800 0.0 1020204
15:00−11se47810 0.0 1017329
18:00−11se49850 0.0 1013269
21:00−12sse513872 0.0 1010361